Regional Weather Roundup
Issued by NWS

Home | Current Version | Previous Version | Text Only | Print | Product List | Glossary Off
Versions: 1 2 3 4 5 6 7 8 9 10 11 12 13 14 15 16 17 18 19 20 21 22 23 24 25 26 27 28 29 30 31 32 33 34 35 36 37 38 39 40 41 42 43 44 45 46 47 48 49 50

074
ASUS43 KFSD 301002
RWRSD

WEATHER ROUNDUP FOR SOUTH DAKOTA
NATIONAL WEATHER SERVICE SIOUX FALLS SD
500 AM CDT THU MAR 30 2017

NOTE: "FAIR" INDICATES FEW OR NO CLOUDS BELOW 12,000 FEET WITH NO
SIGNIFICANT WEATHER AND/OR OBSTRUCTIONS TO VISIBILITY.


SDZ001>005-009-010-012>017-301100-
NORTHWEST AND NORTH CENTRAL SOUTH DAKOTA

CITY           SKY/WX    TMP DP  RH WIND       PRES   REMARKS
BUFFALO          N/A     42  39  89 S10       29.72F
FAITH            N/A     34  34 100 MISG      29.83F
MOBRIDGE       CLEAR     33  30  88 SE7       29.87F WCI  27
$$

SDZ012>016-024>037-041>051-057-063-072>074-301100-
SOUTHWEST AND SOUTH CENTRAL SOUTH DAKOTA

CITY           SKY/WX    TMP DP  RH WIND       PRES   REMARKS
RAPID CTY ARPT PTCLDY    34  33  96 SE6       29.81F WCI  29
PIERRE         FOG       28  28 100 CALM      29.90F VSB 1/2
CUSTER         CLOUDY    32  31  96 CALM      29.83F
ELLSWORTH AFB  PTCLDY    39  38  97 CALM      29.80F
PHILIP         CLEAR     30  30 100 CALM      29.87F
PINE RIDGE     FOG       31  30  96 CALM      29.84F VSB 1/4
SPEARFISH      FAIR      39  32  75 S3        29.79F
WINNER         CLOUDY    39  36  89 E3        29.90F
$$

SDZ004>011-016>023-039-040-301100-
NORTHEAST SOUTH DAKOTA

CITY           SKY/WX    TMP DP  RH WIND       PRES   REMARKS
ABERDEEN       CLOUDY    36  32  85 E6        29.95F
WATERTOWN      CLOUDY    38  36  92 E9        29.93F
BROOKINGS      CLOUDY    37  35  92 E9        29.91F
SISSETON         N/A     38  38 100 SE5       29.97F
$$

SDZ017-020-022-023-036>040-048>070-301100-
SOUTHEAST SOUTH DAKOTA

CITY           SKY/WX    TMP DP  RH WIND       PRES   REMARKS
SIOUX FALLS    CLOUDY    39  38  96 NE16      29.88F
HURON          CLOUDY    40  37  89 E7        29.93F
CHAMBERLAIN    CLOUDY    39  38  95 NE3       29.91S
MITCHELL       CLOUDY    40  36  86 N10       29.92F
YANKTON        CLOUDY    39  36  87 N13       29.86F
$$

ABBREVIATIONS USED IN REMARKS
   TC - TEMPERATURE IN CELSIUS
  WCI - WIND CHILL INDEX
   HX - HEAT INDEX
  VSB - VISIBILITY





USA.gov is the U.S. government's official web portal to all federal, state and local government web resources and services.